Time,TemperatureF,DewpointF,PressureIn,WindDirection,WindDirectionDegrees,WindSpeedMPH,WindSpeedGustMPH,Humidity,HourlyPrecipIn,Conditions,Clouds,dailyrainin,SoftwareType,DateUTC
2013-04-29 00:13:00,50.0,47.0,29.95,SE,136,6.0,-999.0,88,-99.99,,,0.00,weatherlink.com 1.10,2013-04-29 04:13:00,
2013-04-29 00:28:00,49.9,47.0,29.94,SE,142,4.0,-999.0,90,-99.99,,,0.00,weatherlink.com 1.10,2013-04-29 04:28:00,
2013-04-29 00:43:00,49.4,47.0,29.95,SSE,156,4.0,-999.0,90,-99.99,,,0.00,weatherlink.com 1.10,2013-04-29 04:43:00,
2013-04-29 00:58:00,49.2,47.0,29.95,SSE,150,4.0,-999.0,92,-99.99,,,0.00,weatherlink.com 1.10,2013-04-29 04:58:00,
2013-04-29 01:13:00,48.1,46.0,29.95,SE,141,0.0,-999.0,92,-99.99,,,0.00,weatherlink.com 1.10,2013-04-29 05:13:00,
2013-04-29 01:28:00,48.4,47.0,29.96,ESE,121,0.0,-999.0,93,-99.99,,,0.00,weatherlink.com 1.10,2013-04-29 05:28:00,
2013-04-29 01:43:00,49.2,48.0,29.95,ESE,106,4.0,-999.0,94,-99.99,,,0.00,weatherlink.com 1.10,2013-04-29 05:43:00,
2013-04-29 01:58:00,49.5,48.0,29.95,ESE,102,5.0,-999.0,94,-99.99,,,0.00,weatherlink.com 1.10,2013-04-29 05:58:00,
2013-04-29 02:13:00,49.6,48.0,29.95,ESE,102,2.0,-999.0,95,-99.99,,,0.00,weatherlink.com 1.10,2013-04-29 06:13:00,
2013-04-29 02:27:00,49.6,48.0,29.95,ESE,115,2.0,-999.0,95,-99.99,,,0.00,weatherlink.com 1.10,2013-04-29 06:27:00,
2013-04-29 02:43:00,49.7,48.0,29.95,SE,132,4.0,-999.0,95,-99.99,,,0.00,weatherlink.com 1.10,2013-04-29 06:43:00,
2013-04-29 02:58:00,49.5,48.0,29.95,SE,132,8.0,-999.0,95,-99.99,,,0.00,weatherlink.com 1.10,2013-04-29 06:58:00,
2013-04-29 03:13:00,49.5,48.0,29.95,SE,130,6.0,-999.0,96,-99.99,,,0.00,weatherlink.com 1.10,2013-04-29 07:13:00,
2013-04-29 03:28:00,49.5,48.0,29.94,ESE,121,5.0,-999.0,96,-99.99,,,0.00,weatherlink.com 1.10,2013-04-29 07:28:00,
2013-04-29 03:43:00,49.4,48.0,29.94,SE,130,5.0,-999.0,96,-99.99,,,0.00,weatherlink.com 1.10,2013-04-29 07:43:00,
2013-04-29 03:58:00,49.3,48.0,29.94,SE,134,4.0,-999.0,96,-99.99,,,0.00,weatherlink.com 1.10,2013-04-29 07:58:00,
2013-04-29 04:13:00,49.2,48.0,29.94,SSE,152,4.0,-999.0,96,-99.99,,,0.00,weatherlink.com 1.10,2013-04-29 08:13:00,
2013-04-29 04:28:00,49.0,48.0,29.94,SE,130,3.0,-999.0,96,-99.99,,,0.00,weatherlink.com 1.10,2013-04-29 08:28:00,
2013-04-29 04:43:00,48.9,48.0,29.94,SE,131,2.0,-999.0,96,-99.99,,,0.00,weatherlink.com 1.10,2013-04-29 08:43:00,
2013-04-29 04:58:00,48.7,48.0,29.94,ESE,121,4.0,-999.0,96,-99.99,,,0.00,weatherlink.com 1.10,2013-04-29 08:58:00,
2013-04-29 05:13:00,48.7,48.0,29.94,ESE,123,3.0,-999.0,96,-99.99,,,0.00,weatherlink.com 1.10,2013-04-29 09:13:00,
2013-04-29 05:28:00,48.4,47.0,29.94,SE,140,3.0,-999.0,96,-99.99,,,0.00,weatherlink.com 1.10,2013-04-29 09:28:00,
2013-04-29 05:43:00,48.4,47.0,29.94,SE,125,3.0,-999.0,96,-99.99,,,0.00,weatherlink.com 1.10,2013-04-29 09:43:00,
2013-04-29 05:58:00,48.3,47.0,29.95,SE,125,2.0,-999.0,96,-99.99,,,0.00,weatherlink.com 1.10,2013-04-29 09:58:00,
2013-04-29 06:13:00,48.2,47.0,29.95,SE,135,3.0,-999.0,97,-99.99,,,0.00,weatherlink.com 1.10,2013-04-29 10:13:00,
2013-04-29 06:28:00,47.9,47.0,29.96,SE,134,0.0,-999.0,96,-99.99,,,0.00,weatherlink.com 1.10,2013-04-29 10:28:00,
2013-04-29 06:43:00,47.9,47.0,29.96,SE,134,0.0,-999.0,96,-99.99,,,0.00,weatherlink.com 1.10,2013-04-29 10:43:00,
2013-04-29 06:58:00,47.7,47.0,29.97,SE,134,3.0,-999.0,97,-99.99,,,0.00,weatherlink.com 1.10,2013-04-29 10:58:00,
2013-04-29 07:14:00,47.7,47.0,29.96,SSE,166,0.0,-999.0,97,-99.99,,,0.00,weatherlink.com 1.10,2013-04-29 11:14:00,
2013-04-29 07:29:00,47.9,47.0,29.96,SSE,166,2.0,-999.0,97,-99.99,,,0.00,weatherlink.com 1.10,2013-04-29 11:29:00,
2013-04-29 07:44:00,47.9,47.0,29.97,SSE,166,2.0,-999.0,97,-99.99,,,0.00,weatherlink.com 1.10,2013-04-29 11:44:00,
2013-04-29 07:59:00,47.9,47.0,29.97,SE,144,3.0,-999.0,97,-99.99,,,0.00,weatherlink.com 1.10,2013-04-29 11:59:00,
2013-04-29 08:14:00,48.6,48.0,29.96,SE,138,1.0,-999.0,97,-99.99,,,0.00,weatherlink.com 1.10,2013-04-29 12:14:00,
2013-04-29 08:29:00,48.4,48.0,29.97,SSE,167,3.0,-999.0,97,-99.99,,,0.00,weatherlink.com 1.10,2013-04-29 12:29:00,
2013-04-29 08:44:00,48.2,47.0,29.97,SE,139,3.0,-999.0,97,-99.99,,,0.00,weatherlink.com 1.10,2013-04-29 12:44:00,
2013-04-29 08:59:00,48.5,48.0,29.97,SE,130,6.0,-999.0,97,-99.99,,,0.00,weatherlink.com 1.10,2013-04-29 12:59:00,
2013-04-29 09:14:00,48.7,48.0,29.97,SSE,153,6.0,-999.0,97,-99.99,,,0.00,weatherlink.com 1.10,2013-04-29 13:14:00,
2013-04-29 09:29:00,49.3,49.0,29.97,South,173,6.0,-999.0,97,-99.99,,,0.00,weatherlink.com 1.10,2013-04-29 13:29:00,
2013-04-29 09:44:00,49.8,49.0,29.97,SSE,148,6.0,-999.0,97,-99.99,,,0.00,weatherlink.com 1.10,2013-04-29 13:44:00,
2013-04-29 09:59:00,50.0,49.0,29.98,SE,140,10.0,-999.0,96,-99.99,,,0.00,weatherlink.com 1.10,2013-04-29 13:59:00,
2013-04-29 10:14:00,50.2,49.0,29.97,SE,142,10.0,-999.0,95,-99.99,,,0.00,weatherlink.com 1.10,2013-04-29 14:14:00,
2013-04-29 10:29:00,50.4,49.0,29.97,SE,133,7.0,-999.0,95,-99.99,,,0.00,weatherlink.com 1.10,2013-04-29 14:29:00,
2013-04-29 10:44:00,50.1,49.0,29.97,SE,140,6.0,-999.0,94,-99.99,,,0.00,weatherlink.com 1.10,2013-04-29 14:44:00,
2013-04-29 10:59:00,50.2,49.0,29.97,SE,137,6.0,-999.0,95,-99.99,,,0.00,weatherlink.com 1.10,2013-04-29 14:59:00,
2013-04-29 11:14:00,51.4,50.0,29.97,ESE,121,7.0,-999.0,95,-99.99,,,0.00,weatherlink.com 1.10,2013-04-29 15:14:00,
2013-04-29 11:29:00,51.7,50.0,29.96,SE,140,7.0,-999.0,93,-99.99,,,0.00,weatherlink.com 1.10,2013-04-29 15:29:00,
2013-04-29 11:44:00,52.7,51.0,29.96,ESE,121,7.0,-999.0,92,-99.99,,,0.00,weatherlink.com 1.10,2013-04-29 15:44:00,
2013-04-29 11:59:00,53.5,51.0,29.96,SE,134,11.0,-999.0,90,-99.99,,,0.00,weatherlink.com 1.10,2013-04-29 15:59:00,
2013-04-29 12:13:00,54.0,51.0,29.96,SE,132,10.0,-999.0,89,-99.99,,,0.00,weatherlink.com 1.10,2013-04-29 16:13:00,
2013-04-29 12:28:00,54.5,51.0,29.96,SE,136,10.0,-999.0,87,-99.99,,,0.00,weatherlink.com 1.10,2013-04-29 16:28:00,
2013-04-29 12:44:00,55.1,52.0,29.95,SE,125,5.0,-999.0,88,-99.99,,,0.00,weatherlink.com 1.10,2013-04-29 16:44:00,
2013-04-29 12:58:00,55.5,51.0,29.95,SSE,150,6.0,-999.0,86,-99.99,,,0.00,weatherlink.com 1.10,2013-04-29 16:58:00,
2013-04-29 13:13:00,56.3,52.0,29.95,SE,132,10.0,-999.0,86,-99.99,,,0.00,weatherlink.com 1.10,2013-04-29 17:13:00,
2013-04-29 13:28:00,55.6,51.0,29.95,SSE,163,11.0,-999.0,84,-99.99,,,0.00,weatherlink.com 1.10,2013-04-29 17:28:00,
2013-04-29 13:43:00,54.8,51.0,29.95,SSE,153,11.0,-999.0,86,-99.99,,,0.00,weatherlink.com 1.10,2013-04-29 17:43:00,
2013-04-29 13:58:00,54.7,51.0,29.95,SE,135,10.0,-999.0,87,-99.99,,,0.00,weatherlink.com 1.10,2013-04-29 17:58:00,
2013-04-29 14:14:00,54.5,51.0,29.95,SSE,154,5.0,-999.0,89,-99.99,,,0.00,weatherlink.com 1.10,2013-04-29 18:14:00,
2013-04-29 14:28:00,53.8,50.0,29.95,SE,141,9.0,-999.0,87,-99.99,,,0.00,weatherlink.com 1.10,2013-04-29 18:28:00,
2013-04-29 14:44:00,53.4,50.0,29.95,ESE,102,7.0,-999.0,88,-99.99,,,0.00,weatherlink.com 1.10,2013-04-29 18:44:00,
2013-04-29 14:59:00,53.1,50.0,29.95,SE,129,5.0,-999.0,90,-99.99,,,0.00,weatherlink.com 1.10,2013-04-29 18:59:00,
2013-04-29 15:14:00,53.5,51.0,29.95,SSE,158,6.0,-999.0,90,-99.99,,,0.00,weatherlink.com 1.10,2013-04-29 19:14:00,
2013-04-29 15:29:00,53.9,51.0,29.95,ESE,112,5.0,-999.0,89,-99.99,,,0.00,weatherlink.com 1.10,2013-04-29 19:29:00,
2013-04-29 15:44:00,54.2,51.0,29.94,ESE,120,2.0,-999.0,89,-99.99,,,0.00,weatherlink.com 1.10,2013-04-29 19:44:00,
2013-04-29 15:59:00,54.2,51.0,29.95,SE,134,3.0,-999.0,88,-99.99,,,0.00,weatherlink.com 1.10,2013-04-29 19:59:00,
2013-04-29 16:14:00,54.1,51.0,29.95,SE,137,4.0,-999.0,89,-99.99,,,0.00,weatherlink.com 1.10,2013-04-29 20:14:00,
2013-04-29 16:29:00,53.9,51.0,29.95,South,171,2.0,-999.0,89,-99.99,,,0.00,weatherlink.com 1.10,2013-04-29 20:29:00,
2013-04-29 16:44:00,53.4,50.0,29.95,South,172,2.0,-999.0,89,-99.99,,,0.00,weatherlink.com 1.10,2013-04-29 20:44:00,
2013-04-29 16:59:00,52.9,50.0,29.95,SSE,167,2.0,-999.0,90,-99.99,,,0.00,weatherlink.com 1.10,2013-04-29 20:59:00,
2013-04-29 17:14:00,52.1,50.0,29.96,SSW,207,3.0,-999.0,91,-99.99,,,0.01,weatherlink.com 1.10,2013-04-29 21:14:00,
2013-04-29 17:29:00,51.0,49.0,29.96,SSW,199,2.0,-999.0,92,-99.99,,,0.01,weatherlink.com 1.10,2013-04-29 21:29:00,
2013-04-29 17:44:00,50.6,49.0,29.97,SSE,162,3.0,-999.0,93,-99.99,,,0.01,weatherlink.com 1.10,2013-04-29 21:44:00,
2013-04-29 17:59:00,50.5,49.0,29.97,SE,142,2.0,-999.0,94,-99.99,,,0.01,weatherlink.com 1.10,2013-04-29 21:59:00,
2013-04-29 18:14:00,50.1,49.0,29.97,SE,134,3.0,-999.0,94,-99.99,,,0.01,weatherlink.com 1.10,2013-04-29 22:14:00,
2013-04-29 18:29:00,50.2,49.0,29.97,SE,136,1.0,-999.0,94,-99.99,,,0.01,weatherlink.com 1.10,2013-04-29 22:29:00,
2013-04-29 18:44:00,50.3,49.0,29.97,SSE,157,3.0,-999.0,95,-99.99,,,0.01,weatherlink.com 1.10,2013-04-29 22:44:00,
2013-04-29 18:59:00,50.1,49.0,29.97,SE,131,5.0,-999.0,95,-99.99,,,0.01,weatherlink.com 1.10,2013-04-29 22:59:00,
2013-04-29 19:14:00,50.1,49.0,29.97,SSE,159,2.0,-999.0,95,-99.99,,,0.01,weatherlink.com 1.10,2013-04-29 23:14:00,
2013-04-29 19:29:00,50.1,49.0,29.97,SE,137,5.0,-999.0,95,-99.99,,,0.01,weatherlink.com 1.10,2013-04-29 23:29:00,
2013-04-29 19:44:00,50.2,49.0,29.97,SE,140,6.0,-999.0,95,-99.99,,,0.01,weatherlink.com 1.10,2013-04-29 23:44:00,
2013-04-29 19:59:00,50.1,49.0,29.97,SSE,157,8.0,-999.0,95,-99.99,,,0.01,weatherlink.com 1.10,2013-04-29 23:59:00,
2013-04-29 20:14:00,50.2,49.0,29.97,SE,128,10.0,-999.0,96,-99.99,,,0.01,weatherlink.com 1.10,2013-04-30 00:14:00,
2013-04-29 20:29:00,50.4,49.0,29.97,SE,145,7.0,-999.0,96,-99.99,,,0.01,weatherlink.com 1.10,2013-04-30 00:29:00,
2013-04-29 20:44:00,50.6,50.0,29.97,SE,141,8.0,-999.0,96,-99.99,,,0.01,weatherlink.com 1.10,2013-04-30 00:44:00,
2013-04-29 20:59:00,50.7,50.0,29.98,SE,133,7.0,-999.0,96,-99.99,,,0.01,weatherlink.com 1.10,2013-04-30 00:59:00,
2013-04-29 21:14:00,50.8,50.0,29.98,SE,134,6.0,-999.0,96,-99.99,,,0.01,weatherlink.com 1.10,2013-04-30 01:14:00,
2013-04-29 21:29:00,50.8,50.0,29.98,ESE,115,5.0,-999.0,96,-99.99,,,0.01,weatherlink.com 1.10,2013-04-30 01:29:00,
2013-04-29 21:44:00,50.7,50.0,29.99,SSE,150,6.0,-999.0,96,-99.99,,,0.01,weatherlink.com 1.10,2013-04-30 01:44:00,
2013-04-29 21:59:00,50.7,50.0,29.99,SE,144,5.0,-999.0,96,-99.99,,,0.01,weatherlink.com 1.10,2013-04-30 01:59:00,
2013-04-29 22:14:00,50.6,50.0,29.99,SE,146,0.0,-999.0,96,-99.99,,,0.01,weatherlink.com 1.10,2013-04-30 02:14:00,
2013-04-29 22:29:00,50.5,49.0,29.99,SSE,155,2.0,-999.0,96,-99.99,,,0.01,weatherlink.com 1.10,2013-04-30 02:29:00,
2013-04-29 22:44:00,50.5,49.0,29.99,SE,125,3.0,-999.0,96,-99.99,,,0.01,weatherlink.com 1.10,2013-04-30 02:44:00,
2013-04-29 22:59:00,50.4,49.0,29.99,ESE,117,2.0,-999.0,96,-99.99,,,0.01,weatherlink.com 1.10,2013-04-30 02:59:00,
2013-04-29 23:14:00,50.1,49.0,29.99,SSE,155,0.0,-999.0,96,-99.99,,,0.01,weatherlink.com 1.10,2013-04-30 03:14:00,
2013-04-29 23:29:00,49.9,49.0,29.99,SE,140,0.0,-999.0,96,-99.99,,,0.01,weatherlink.com 1.10,2013-04-30 03:29:00,
2013-04-29 23:44:00,49.7,49.0,29.99,SE,144,3.0,-999.0,96,-99.99,,,0.02,weatherlink.com 1.10,2013-04-30 03:44:00,
2013-04-29 23:59:00,49.5,48.0,29.99,SE,144,2.0,-999.0,96,-99.99,,,0.02,weatherlink.com 1.10,2013-04-30 03:59:00,